Weather in Ochyor

Russia / Perm Krai     57°53′06″N   54°42′57″E
temp.,
°C
wind,
m/s
gust,
m/s
humid.,
%
clouds,
%
prec.,
mm/h
press.,
hPa
HPBL,
m
27 february, sat
sat2723:00−20sse4129698 0.0 1017393
02:00−20se5149492 0.0 1014457
05:00−18se5139496 0.0 1012504
08:00−17ese51391100 0.0 1010549
11:00−16ese51088100 0.0 1008511
14:00−14e5891100 0.1 1007546
17:00−14e5991100 0.4 1007583
20:00−14ene41093100 0.2 1008518
28 february, sun
sun2823:00−17e41194100 0.2 1009384
02:00−21ene499699 0.0 1009278
05:00−22ne499799 0.0 1009251
08:00−23ne499795 0.0 1009251
11:00−20ne489396 0.0 1010380
14:00−16ne4789100 0.0 1010528
17:00−14ne4889100 0.1 1011682
20:00−16ne3896100 0.1 1013302
1 march, mon
mon123:00−19ne359794 0.1 1016116
02:00−23ne23960 0.0 101752
05:00−24nne23940 0.0 101945
08:00−25ne23940 0.0 102027
11:00−19ne23880 0.0 1021215
14:00−14nne128210 0.0 1021373
17:00−13nnw118342 0.0 1020355
20:00−18s129328 0.0 101920
2 march, tue
tue223:00−19ssw239714 0.0 101937
02:00−20ssw36984 0.0 1017120
05:00−20ssw499834 0.0 1015209
08:00−19ssw51196100 0.0 1012297
11:00−17s61293100 0.0 1009360
14:00−14s61292100 0.1 1007460
17:00−13s61292100 0.6 1006551
20:00−13s41094100 0.5 1005593
3 march, wed
wed323:00−13s4995100 0.9 1004475
02:00−13s3796100 0.5 1004348
05:00−14sse2696100 0.8 1003261
08:00−14sse2596100 0.5 1003208
11:00−12s1292100 0.9 1003237
14:00−9ssw0088100 0.4 1003356
17:00−8nw0188100 0.6 1003316
20:00−11sw0096100 0.1 100421